Regional Weather Roundup
Issued by NWS

Home | Current Version | Previous Version | Text Only | Print | Product List | Glossary Off
Versions: 1 2 3 4 5 6 7 8 9 10 11 12 13 14 15 16 17 18 19 20 21 22 23 24 25 26 27 28 29 30 31 32 33 34 35 36 37 38 39 40 41 42 43 44 45 46 47 48 49 50

000
ASUS43 KBIS 242010
RWRND

NORTH DAKOTA REGIONAL WEATHER ROUNDUP
NATIONAL WEATHER SERVICE BISMARCK ND
200 PM CST FRI FEB 24 2017

NOTE: "FAIR" INDICATES FEW OR NO CLOUDS BELOW 12,000 FEET WITH NO
SIGNIFICANT WEATHER AND/OR OBSTRUCTIONS TO VISIBILITY.


NDZ001>003-009>011-017-242100-
NORTHWEST NORTH DAKOTA

CITY           SKY/WX    TMP DP  RH WIND       PRES   REMARKS
WILLISTON      CLOUDY    27  15  61 S10       30.12F WCI  17
MINOT          FAIR      30  15  53 N7        30.11F
$$

NDZ018>021-031>035-040>046-242100-
SOUTHWEST NORTH DAKOTA

CITY           SKY/WX    TMP DP  RH WIND       PRES   REMARKS
BISMARCK       FAIR      30  18  60 N12       30.13F
DICKINSON      CLOUDY    23  10  57 CALM      30.08F
GARRISON         N/A     28  17  63 W9        30.11F WCI  19
HETTINGER ARPT CLOUDY    26  12  55 VRB3      30.10F
$$

NDZ004>008-012>016-024-026-027-054-242100-
NORTHEAST NORTH DAKOTA

CITY           SKY/WX    TMP DP  RH WIND       PRES   REMARKS
GRAND FORKS    PTSUNNY   20   9  62 N17       30.12F WCI   5
GRND FRKS AFB  CLOUDY    21  12  68 N16       30.12S WCI   7
DEVILS LAKE    CLOUDY    20  14  77 NW12      30.11F WCI   8
$$

NDZ022-023-025-028>030-036>039-047>053-242100-
SOUTHEAST NORTH DAKOTA

CITY           SKY/WX    TMP DP  RH WIND       PRES   REMARKS
FARGO          PTSUNNY   25  15  66 N23       30.07F WCI  10
JAMESTOWN      PTSUNNY   25  17  72 N18       30.07F WCI  11
$$





USA.gov is the U.S. government's official web portal to all federal, state and local government web resources and services.